Location: Waco, TX
(31.5480°N, 97.1670°W)
Time: 15:47:33
(UTC-05:00)

ISS - Pass Details

Date: 21 September 2019
Orbit: 411 x 421 km, 51.6° (Epoch: 17 September)

Event Time Altitude Azimuth Distance (km) Brightness Sun altitude
Rises 03:01:34 0° 325° (NW) 2,344 - -50.0°
Reaches altitude 10° 03:03:51 10° 338° (NNW) 1,481 - -49.7°
Maximum altitude 03:06:45 28° 39° (NE) 816 - -49.2°
Drops below altitude 10° 03:09:40 10° 100° (E) 1,480 - -48.8°
Sets 03:11:57 0° 113° (ESE) 2,341 - -48.5°
